| time (UTC) | temp F | wind direction | speed knots | gust knots | rain 1hr in | rain 24hr in | rain mn in | humidity % | barometer mb |
| 20260903081230 | 59 | 36 | 0.9 | 1.7 | 0.02 | 0.02 | 0.02 | 94 | 1021.5 |
| 20260903080725 | 59 | 5 | 0.0 | 0.9 | 0.00 | 0.01 | 0.01 | 94 | 1021.4 |
| 20260903080223 | 59 | 116 | 0.0 | 0.9 | 0.00 | 0.01 | 0.01 | 93 | 1021.5 |
| 20260903075722 | 59 | 89 | 0.0 | 1.7 | 0.00 | 0.01 | 0.01 | 93 | 1021.7 |
| 20260903075217 | 59 | 46 | 1.7 | 2.6 | 0.00 | 0.01 | 0.01 | 92 | 1021.2 |
| 20260903074716 | 60 | 54 | 2.6 | 2.6 | 0.00 | 0.01 | 0.01 | 92 | 1021.6 |
| 20260903074212 | 59 | 61 | 0.9 | 1.7 | 0.00 | 0.01 | 0.01 | 92 | 1021.6 |
| 20260903073707 | 59 | 102 | 0.9 | 1.7 | 0.00 | 0.01 | 0.01 | 92 | 1021.7 |
| 20260903073202 | 59 | 92 | 1.7 | 1.7 | 0.00 | 0.01 | 0.01 | 93 | 1021.9 |
| 20260903072658 | 59 | 83 | 1.7 | 1.7 | 0.00 | 0.01 | 0.01 | 93 | 1022.1 |
| 20260903072154 | 59 | 65 | 0.0 | 1.7 | 0.00 | 0.01 | 0.01 | 93 | 1022.0 |
| 20260903071650 | 59 | 229 | 0.0 | 2.6 | 0.00 | 0.01 | 0.01 | 93 | 1022.1 |
| 20260903071145 | 59 | 135 | 0.9 | 1.7 | 0.00 | 0.01 | 0.01 | 94 | 1022.1 |
| 20260903070645 | 59 | 133 | 0.9 | 1.7 | 0.00 | 0.01 | 0.01 | 93 | 1021.7 |
| 20260903070141 | 59 | 60 | 1.7 | 3.5 | 0.00 | 0.01 | 0.01 | 93 | 1021.6 |
| 20260903065641 | 59 | 43 | 2.6 | 2.6 | 0.00 | 0.01 | 0.01 | 93 | 1021.7 |
| 20260903065136 | 59 | 44 | 0.0 | 0.9 | 0.00 | 0.01 | 0.01 | 92 | 1022.0 |
| 20260903064635 | 59 | 256 | 0.0 | 1.7 | 0.00 | 0.01 | 0.01 | 92 | 1022.0 |
| 20260903064130 | 59 | 177 | 0.9 | 0.9 | 0.00 | 0.01 | 0.01 | 92 | 1022.1 |
| 20260903063626 | 59 | 110 | 0.0 | 1.7 | 0.00 | 0.01 | 0.01 | 92 | 1021.9 |
| 20260903063120 | 59 | 35 | 1.7 | 1.7 | 0.02 | 0.01 | 0.01 | 92 | 1021.8 |
| 20260903062617 | 60 | 41 | 1.7 | 1.7 | 0.02 | 0.01 | 0.01 | 91 | 1022.0 |
| 20260903062112 | 60 | 23 | 0.9 | 2.6 | 0.02 | 0.01 | 0.01 | 90 | 1022.3 |
| 20260903061607 | 60 | 58 | 1.7 | 1.7 | 0.02 | 0.01 | 0.01 | 89 | 1022.6 |
| 20260903061106 | 60 | 55 | 0.0 | 1.7 | 0.00 | 0.00 | 0.00 | 88 | 1022.9 |
| 20260903060607 | 61 | 40 | 1.7 | 1.7 | 0.02 | 0.00 | 0.00 | 87 | 1023.1 |
| 20260903055559 | 61 | 42 | 1.7 | 2.6 | 0.00 | 0.00 | 0.00 | 84 | 1023.3 |
| 20260903055058 | 61 | 89 | 1.7 | 1.7 | 0.00 | 0.00 | 0.00 | 83 | 1023.3 |
| 20260903054553 | 61 | 96 | 1.7 | 1.7 | 0.00 | 0.00 | 0.00 | 82 | 1023.7 |
| 20260903054049 | 61 | 98 | 1.7 | 1.7 | 0.00 | 0.00 | 0.00 | 83 | 1023.6 |
| 20260903053544 | 61 | 89 | 0.9 | 1.7 | 0.00 | 0.00 | 0.00 | 83 | 1023.7 |
| 20260903053041 | 61 | 71 | 0.9 | 1.7 | 0.00 | 0.00 | 0.00 | 82 | 1023.6 |
| 20260903052536 | 61 | 76 | 0.9 | 1.7 | 0.00 | 0.00 | 0.00 | 83 | 1023.5 |
| 20260903052032 | 62 | 74 | 0.0 | 1.7 | 0.00 | 0.00 | 0.00 | 82 | 1023.7 |
| 20260903051531 | 62 | 73 | 0.0 | 1.7 | 0.00 | 0.00 | 0.00 | 82 | 1023.9 |
| 20260903051027 | 62 | 65 | 0.9 | 1.7 | 0.00 | 0.00 | 0.00 | 81 | 1023.9 |
| 20260903050525 | 62 | 83 | 0.9 | 1.7 | 0.00 | 0.00 | 0.00 | 80 | 1023.9 |
| 20260903050021 | 62 | 94 | 0.9 | 1.7 | 0.00 | 0.00 | 0.00 | 81 | 1024.0 |
| 20260903045521 | 62 | 86 | 1.7 | 1.7 | 0.00 | 0.00 | 0.00 | 82 | 1023.7 |
| 20260903045017 | 62 | 96 | 1.7 | 1.7 | 0.00 | 0.00 | 0.00 | 81 | 1023.6 |
| 20260903044513 | 62 | 77 | 0.9 | 1.7 | 0.00 | 0.00 | 0.00 | 82 | 1023.8 |
| 20260903044009 | 62 | 49 | 0.9 | 1.7 | 0.00 | 0.00 | 0.00 | 82 | 1023.5 |
| 20260903043504 | 62 | 63 | 0.9 | 1.7 | 0.00 | 0.00 | 0.00 | 82 | 1023.7 |
| 20260903043003 | 62 | 83 | 0.9 | 1.7 | 0.00 | 0.00 | 0.00 | 82 | 1024.0 |
| 20260903042458 | 62 | 85 | 1.7 | 1.7 | 0.00 | 0.00 | 0.00 | 83 | 1024.0 |
| 20260903041954 | 62 | 96 | 1.7 | 2.6 | 0.00 | 0.00 | 0.00 | 84 | 1024.1 |
| 20260903041450 | 62 | 184 | 0.0 | 0.0 | 0.00 | 0.00 | 0.00 | 85 | 1024.5 |
| 20260903040946 | 62 | 99 | 0.0 | 0.0 | 0.00 | 0.00 | 0.00 | 84 | 1024.2 |
| 20260903040444 | 62 | 102 | 0.0 | 1.7 | 0.00 | 0.00 | 0.00 | 83 | 1024.0 |
| 20260903035941 | 62 | 89 | 0.0 | 1.7 | 0.00 | 0.00 | 0.00 | 83 | 1024.0 |
| 20260903035436 | 62 | 67 | 1.7 | 1.7 | 0.00 | 0.00 | 0.00 | 83 | 1023.9 |
| 20260903034931 | 62 | 89 | 0.0 | 1.7 | 0.00 | 0.00 | 0.00 | 84 | 1024.2 |
| 20260903034426 | 62 | 76 | 0.0 | 1.7 | 0.00 | 0.00 | 0.00 | 84 | 1024.1 |
| 20260903033921 | 62 | 76 | 0.0 | 0.9 | 0.00 | 0.00 | 0.00 | 84 | 1024.2 |
| 20260903033416 | 62 | 25 | 0.0 | 0.9 | 0.00 | 0.00 | 0.00 | 85 | 1023.9 |
| 20260903032912 | 62 | 128 | 0.0 | 1.7 | 0.00 | 0.00 | 0.00 | 85 | 1023.9 |
| 20260903032408 | 62 | 102 | 0.0 | 1.7 | 0.00 | 0.00 | 0.00 | 83 | 1024.0 |
| 20260903031908 | 62 | 84 | 1.7 | 1.7 | 0.00 | 0.00 | 0.00 | 83 | 1024.0 |
| 20260903031407 | 63 | 56 | 1.7 | 1.7 | 0.00 | 0.00 | 0.00 | 84 | 1024.4 |
| 20260903030903 | 63 | 108 | 0.9 | 1.7 | 0.00 | 0.00 | 0.00 | 83 | 1024.2 |
| 20260903030359 | 63 | 115 | 0.0 | 1.7 | 0.00 | 0.00 | 0.00 | 84 | 1024.2 |
| 20260903025854 | 63 | 109 | 0.9 | 1.7 | 0.00 | 0.00 | 0.00 | 82 | 1024.3 |
| 20260903025349 | 63 | 74 | 1.7 | 2.6 | 0.00 | 0.00 | 0.00 | 82 | 1024.2 |
| 20260903024844 | 63 | 85 | 1.7 | 2.6 | 0.00 | 0.00 | 0.00 | 82 | 1024.6 |
| 20260903024343 | 63 | 87 | 1.7 | 1.7 | 0.00 | 0.00 | 0.00 | 82 | 1024.7 |
| 20260903023839 | 63 | 97 | 1.7 | 1.7 | 0.00 | 0.00 | 0.00 | 82 | 1024.8 |
| 20260903023335 | 63 | 104 | 1.7 | 1.7 | 0.00 | 0.00 | 0.00 | 82 | 1024.8 |
| 20260903022830 | 63 | 110 | 1.7 | 1.7 | 0.00 | 0.00 | 0.00 | 83 | 1024.9 |
| 20260903022329 | 63 | 92 | 1.7 | 1.7 | 0.00 | 0.00 | 0.00 | 84 | 1025.1 |
| 20260903021828 | 63 | 83 | 0.9 | 1.7 | 0.00 | 0.00 | 0.00 | 85 | 1025.3 |
| 20260903021324 | 62 | 79 | 0.9 | 1.7 | 0.00 | 0.00 | 0.00 | 85 | 1025.3 |
| 20260903020823 | 63 | 89 | 0.0 | 0.9 | 0.00 | 0.00 | 0.00 | 89 | 1025.6 |
| 20260903020318 | 63 | 200 | 0.0 | 1.7 | 0.00 | 0.00 | 0.00 | 87 | 1025.4 |
| 20260903015814 | 63 | 76 | 0.9 | 1.7 | 0.00 | 0.00 | 0.00 | 88 | 1025.3 |
| 20260903015309 | 63 | 76 | 0.0 | 1.7 | 0.00 | 0.00 | 0.00 | 88 | 1025.4 |
| 20260903014804 | 62 | 82 | 0.9 | 1.7 | 0.00 | 0.00 | 0.00 | 87 | 1025.0 |
| 20260903014304 | 62 | 44 | 1.7 | 1.7 | 0.00 | 0.00 | 0.00 | 90 | 1025.4 |
| 20260903013759 | 62 | 79 | 0.0 | 0.0 | 0.00 | 0.00 | 0.00 | 89 | 1025.2 |
| 20260903013258 | 62 | 55 | 0.0 | 0.9 | 0.00 | 0.00 | 0.00 | 89 | 1025.3 |
| 20260903012757 | 62 | 52 | 0.9 | 1.7 | 0.00 | 0.00 | 0.00 | 88 | 1025.1 |
| 20260903012251 | 62 | 76 | 0.9 | 1.7 | 0.00 | 0.00 | 0.00 | 88 | 1025.3 |
| 20260903011751 | 62 | 110 | 0.0 | 0.9 | 0.00 | 0.00 | 0.00 | 89 | 1025.5 |
| 20260903011250 | 62 | 50 | 0.0 | 0.0 | 0.00 | 0.00 | 0.00 | 88 | 1025.6 |
| 20260903010746 | 62 | 60 | 0.0 | 0.9 | 0.00 | 0.00 | 0.00 | 88 | 1025.4 |
| 20260903010241 | 62 | 199 | 0.0 | 0.9 | 0.00 | 0.00 | 0.00 | 87 | 1025.2 |
| 20260903005740 | 62 | 81 | 0.0 | 1.7 | 0.00 | 0.00 | 0.00 | 87 | 1024.7 |
| 20260903005235 | 62 | 97 | 1.7 | 1.7 | 0.00 | 0.00 | 0.00 | 87 | 1024.5 |
| 20260903004731 | 63 | 52 | 0.9 | 1.7 | 0.00 | 0.00 | 0.00 | 87 | 1024.6 |
| 20260903004226 | 63 | 103 | 0.9 | 1.7 | 0.00 | 0.00 | 0.00 | 86 | 1024.7 |
| 20260903003721 | 63 | 80 | 1.7 | 1.7 | 0.00 | 0.00 | 0.00 | 85 | 1024.8 |
| 20260903003217 | 63 | 87 | 0.9 | 1.7 | 0.00 | 0.00 | 0.00 | 85 | 1024.7 |
| 20260903002711 | 63 | 47 | 0.9 | 2.6 | 0.00 | 0.00 | 0.00 | 85 | 1024.9 |
| 20260903002206 | 64 | 33 | 1.7 | 1.7 | 0.00 | 0.00 | 0.00 | 85 | 1024.9 |
| 20260903001701 | 64 | 116 | 0.0 | 1.7 | 0.00 | 0.00 | 0.00 | 84 | 1025.1 |
| 20260903001200 | 64 | 62 | 0.9 | 1.7 | 0.00 | 0.00 | 0.00 | 85 | 1025.1 |
| 20260903000656 | 64 | 58 | 0.9 | 1.7 | 0.00 | 0.00 | 0.00 | 85 | 1025.1 |
| 20260903000155 | 64 | 29 | 1.7 | 2.6 | 0.00 | 0.00 | 0.00 | 85 | 1025.1 |
| 20260902235654 | 64 | 40 | 0.0 | 1.7 | 0.00 | 0.00 | 0.00 | 84 | 1025.2 |
| 20260902235150 | 64 | 64 | 1.7 | 1.7 | 0.00 | 0.00 | 0.00 | 85 | 1025.2 |
| 20260902234649 | 64 | 73 | 0.9 | 1.7 | 0.00 | 0.00 | 0.00 | 86 | 1025.2 |
| 20260902234148 | 64 | 58 | 0.9 | 1.7 | 0.00 | 0.00 | 0.00 | 84 | 1025.2 |
| 20260902233643 | 64 | 79 | 1.7 | 2.6 | 0.00 | 0.00 | 0.00 | 85 | 1025.3 |
| 20260902233143 | 64 | 82 | 0.9 | 1.7 | 0.00 | 0.00 | 0.00 | 85 | 1025.6 |
| 20260902232642 | 64 | 55 | 1.7 | 1.7 | 0.00 | 0.00 | 0.00 | 85 | 1025.5 |
| 20260902232141 | 64 | 71 | 0.9 | 1.7 | 0.00 | 0.00 | 0.00 | 85 | 1025.7 |
| 20260902231641 | 64 | 75 | 1.7 | 2.6 | 0.00 | 0.00 | 0.00 | 87 | 1025.6 |
| 20260902231136 | 64 | 44 | 1.7 | 1.7 | 0.00 | 0.00 | 0.00 | 87 | 1025.9 |
| 20260902230632 | 64 | 44 | 0.0 | 1.7 | 0.00 | 0.00 | 0.00 | 87 | 1026.2 |
| 20260902230130 | 64 | 40 | 1.7 | 1.7 | 0.00 | 0.00 | 0.00 | 87 | 1026.0 |
| 20260902225625 | 65 | 103 | 0.9 | 1.7 | 0.00 | 0.00 | 0.00 | 86 | 1026.3 |
| 20260902225125 | 65 | 42 | 0.0 | 1.7 | 0.00 | 0.00 | 0.00 | 85 | 1026.0 |
| 20260902224623 | 65 | 89 | 0.0 | 0.9 | 0.00 | 0.00 | 0.00 | 86 | 1026.1 |
| 20260902224120 | 65 | 32 | 0.0 | 0.9 | 0.00 | 0.00 | 0.00 | 85 | 1026.3 |
| 20260902223616 | 66 | 51 | 1.7 | 1.7 | 0.00 | 0.00 | 0.00 | 83 | 1026.3 |
| 20260902223115 | 66 | 66 | 0.0 | 0.9 | 0.00 | 0.00 | 0.00 | 84 | 1026.2 |
| 20260902222614 | 66 | 41 | 0.0 | 0.9 | 0.00 | 0.00 | 0.00 | 84 | 1026.3 |
| 20260902222112 | 66 | 5 | 1.7 | 1.7 | 0.00 | 0.00 | 0.00 | 82 | 1026.5 |
| 20260902221607 | 66 | 50 | 0.0 | 1.7 | 0.00 | 0.00 | 0.00 | 82 | 1026.1 |
| 20260902221102 | 66 | 89 | 0.0 | 1.7 | 0.00 | 0.00 | 0.00 | 82 | 1026.3 |
| 20260902220557 | 66 | 104 | 0.9 | 0.9 | 0.00 | 0.00 | 0.00 | 82 | 1026.1 |
| 20260902220052 | 67 | 47 | 0.9 | 1.7 | 0.00 | 0.00 | 0.00 | 85 | 1026.1 |
| 20260902215548 | 67 | 76 | 1.7 | 1.7 | 0.00 | 0.00 | 0.00 | 84 | 1026.2 |
| 20260902215044 | 67 | 37 | 0.0 | 0.9 | 0.00 | 0.00 | 0.00 | 83 | 1026.2 |
| 20260902214544 | 67 | 6 | 0.0 | 0.9 | 0.00 | 0.00 | 0.00 | 82 | 1026.1 |
| 20260902214043 | 67 | 32 | 0.0 | 0.9 | 0.00 | 0.00 | 0.00 | 85 | 1026.1 |
| 20260902213538 | 67 | 9 | 0.0 | 1.7 | 0.00 | 0.00 | 0.00 | 84 | 1026.0 |
| 20260902213038 | 68 | 19 | 0.0 | 0.0 | 0.00 | 0.00 | 0.00 | 83 | 1026.2 |
| 20260902212534 | 68 | 39 | 0.0 | 0.0 | 0.00 | 0.00 | 0.00 | 82 | 1026.1 |
| 20260902212029 | 68 | 32 | 0.0 | 0.9 | 0.00 | 0.00 | 0.00 | 81 | 1026.1 |
| 20260902211526 | 69 | 332 | 0.0 | 0.0 | 0.00 | 0.00 | 0.00 | 81 | 1026.1 |
| 20260902211021 | 69 | 109 | 0.0 | 0.9 | 0.00 | 0.00 | 0.00 | 79 | 1026.0 |
| 20260902210520 | 69 | 83 | 0.9 | 1.7 | 0.00 | 0.00 | 0.00 | 77 | 1026.1 |
| 20260902210020 | 69 | 111 | 0.0 | 1.7 | 0.00 | 0.00 | 0.00 | 77 | 1026.0 |
| 20260902205514 | 70 | 113 | 0.0 | 1.7 | 0.00 | 0.00 | 0.00 | 76 | 1025.8 |
| 20260902205010 | 70 | 98 | 0.0 | 1.7 | 0.00 | 0.00 | 0.00 | 76 | 1025.7 |
| 20260902204509 | 70 | 21 | 1.7 | 1.7 | 0.00 | 0.00 | 0.00 | 77 | 1025.7 |
| 20260902204004 | 70 | 129 | 0.0 | 1.7 | 0.00 | 0.00 | 0.00 | 77 | 1025.8 |
| 20260902203500 | 70 | 22 | 0.0 | 1.7 | 0.00 | 0.00 | 0.00 | 75 | 1025.9 |
| 20260902202958 | 71 | 77 | 0.0 | 1.7 | 0.00 | 0.00 | 0.00 | 74 | 1026.0 |
| 20260902202454 | 71 | 86 | 1.7 | 1.7 | 0.00 | 0.00 | 0.00 | 75 | 1025.8 |
| 20260902201951 | 70 | 2 | 0.9 | 1.7 | 0.00 | 0.00 | 0.00 | 79 | 1026.0 |
| 20260902201446 | 69 | 87 | 0.9 | 0.9 | 0.00 | 0.00 | 0.00 | 78 | 1026.5 |
| 20260902200946 | 69 | 142 | 0.0 | 0.9 | 0.00 | 0.00 | 0.00 | 78 | 1026.7 |
| 20260902200441 | 69 | 55 | 0.0 | 0.9 | 0.00 | 0.00 | 0.00 | 79 | 1026.6 |
| 20260902195936 | 69 | 89 | 0.0 | 1.7 | 0.00 | 0.00 | 0.00 | 76 | 1026.5 |
| 20260902195432 | 70 | 53 | 0.0 | 1.7 | 0.00 | 0.00 | 0.00 | 76 | 1026.7 |
| 20260902194931 | 70 | 151 | 0.0 | 1.7 | 0.00 | 0.00 | 0.00 | 76 | 1026.6 |
| 20260902194426 | 69 | 84 | 0.0 | 0.9 | 0.00 | 0.00 | 0.00 | 77 | 1026.5 |
| 20260902193920 | 69 | 64 | 0.0 | 1.7 | 0.00 | 0.00 | 0.00 | 77 | 1026.6 |
| 20260902193417 | 69 | 86 | 0.9 | 1.7 | 0.00 | 0.00 | 0.00 | 77 | 1026.5 |
| 20260902192915 | 69 | 15 | 0.0 | 2.6 | 0.00 | 0.00 | 0.00 | 79 | 1026.7 |
| 20260902192415 | 69 | 47 | 1.7 | 1.7 | 0.00 | 0.00 | 0.00 | 83 | 1026.7 |
| 20260902191913 | 69 | 72 | 0.9 | 1.7 | 0.00 | 0.00 | 0.00 | 81 | 1026.8 |
| 20260902191409 | 68 | 32 | 0.0 | 0.9 | 0.00 | 0.00 | 0.00 | 80 | 1027.1 |
| 20260902190904 | 69 | 9 | 1.7 | 2.6 | 0.00 | 0.00 | 0.00 | 78 | 1027.1 |
| 20260902190359 | 69 | 11 | 0.0 | 2.6 | 0.00 | 0.00 | 0.00 | 79 | 1027.0 |
| 20260902185855 | 69 | 44 | 0.9 | 1.7 | 0.00 | 0.00 | 0.00 | 78 | 1027.1 |
| 20260902185350 | 69 | 54 | 0.0 | 0.9 | 0.00 | 0.00 | 0.00 | 77 | 1026.8 |
| 20260902184845 | 69 | 57 | 0.9 | 1.7 | 0.00 | 0.00 | 0.00 | 79 | 1026.8 |
| 20260902184341 | 69 | 44 | 0.9 | 1.7 | 0.00 | 0.00 | 0.00 | 77 | 1027.2 |
| 20260902183836 | 69 | 104 | 0.0 | 2.6 | 0.00 | 0.00 | 0.00 | 78 | 1027.0 |
| 20260902183332 | 69 | 93 | 0.9 | 1.7 | 0.00 | 0.00 | 0.00 | 75 | 1026.8 |
| 20260902182828 | 69 | 10 | 0.0 | 1.7 | 0.00 | 0.00 | 0.00 | 75 | 1027.0 |
| 20260902182324 | 70 | 105 | 0.0 | 0.9 | 0.00 | 0.00 | 0.00 | 77 | 1026.9 |
| 20260902181820 | 70 | 160 | 1.7 | 2.6 | 0.00 | 0.00 | 0.00 | 76 | 1026.9 |
| 20260902181315 | 70 | 108 | 0.9 | 2.6 | 0.00 | 0.00 | 0.00 | 73 | 1026.6 |
| 20260902180810 | 70 | 2 | 0.9 | 1.7 | 0.00 | 0.00 | 0.00 | 76 | 1026.9 |
| 20260902180306 | 70 | 297 | 1.7 | 1.7 | 0.00 | 0.00 | 0.00 | 76 | 1027.0 |
| 20260902175801 | 69 | 317 | 0.9 | 0.9 | 0.00 | 0.00 | 0.00 | 78 | 1027.0 |
| 20260902175256 | 69 | 99 | 1.7 | 2.6 | 0.00 | 0.00 | 0.00 | 75 | 1027.2 |
| 20260902174751 | 68 | 136 | 0.9 | 1.7 | 0.00 | 0.00 | 0.00 | 79 | 1027.3 |
| 20260902174248 | 68 | 108 | 1.7 | 1.7 | 0.00 | 0.00 | 0.00 | 77 | 1027.2 |
| 20260902173743 | 68 | 141 | 0.0 | 0.9 | 0.00 | 0.00 | 0.00 | 77 | 1027.3 |
| 20260902173243 | 68 | 117 | 2.6 | 2.6 | 0.00 | 0.00 | 0.00 | 75 | 1027.2 |
| 20260902172738 | 68 | 78 | 0.9 | 1.7 | 0.00 | 0.00 | 0.00 | 78 | 1027.2 |
| 20260902172238 | 68 | 116 | 0.9 | 1.7 | 0.00 | 0.00 | 0.00 | 79 | 1027.2 |
| 20260902171732 | 68 | 57 | 0.9 | 2.6 | 0.00 | 0.00 | 0.00 | 79 | 1027.2 |
| 20260902171228 | 68 | 15 | 1.7 | 1.7 | 0.00 | 0.00 | 0.00 | 77 | 1027.3 |
| 20260902170724 | 68 | 69 | 1.7 | 2.6 | 0.00 | 0.00 | 0.00 | 76 | 1027.2 |
| 20260902170219 | 69 | 54 | 0.0 | 0.9 | 0.00 | 0.00 | 0.00 | 78 | 1027.0 |
| 20260902165714 | 68 | 3 | 1.7 | 1.7 | 0.00 | 0.00 | 0.00 | 79 | 1027.4 |
| 20260902165208 | 67 | 109 | 1.7 | 2.6 | 0.00 | 0.00 | 0.00 | 79 | 1027.0 |
| 20260902164703 | 68 | 106 | 1.7 | 1.7 | 0.00 | 0.00 | 0.00 | 78 | 1027.2 |
| 20260902164203 | 67 | 108 | 2.6 | 3.5 | 0.00 | 0.00 | 0.00 | 80 | 1027.2 |
| 20260902163657 | 67 | 123 | 3.5 | 3.5 | 0.00 | 0.00 | 0.00 | 83 | 1027.3 |
| 20260902163157 | 67 | 315 | 0.0 | 1.7 | 0.00 | 0.00 | 0.00 | 83 | 1027.4 |
| 20260902162656 | 67 | 136 | 1.7 | 1.7 | 0.00 | 0.00 | 0.00 | 82 | 1027.2 |
| 20260902162150 | 66 | 130 | 1.7 | 2.6 | 0.00 | 0.00 | 0.00 | 83 | 1027.5 |
| 20260902161646 | 67 | 115 | 1.7 | 2.6 | 0.00 | 0.00 | 0.00 | 81 | 1027.6 |
| 20260902161141 | 67 | 101 | 1.7 | 1.7 | 0.00 | 0.00 | 0.00 | 83 | 1027.7 |
| 20260902160638 | 67 | 290 | 1.7 | 2.6 | 0.00 | 0.00 | 0.00 | 83 | 1027.6 |
| 20260902160132 | 66 | 356 | 1.7 | 2.6 | 0.00 | 0.00 | 0.00 | 83 | 1027.5 |
| 20260902155631 | 66 | 349 | 1.7 | 2.6 | 0.00 | 0.00 | 0.00 | 84 | 1027.6 |
| 20260902155130 | 66 | 341 | 0.0 | 3.5 | 0.00 | 0.00 | 0.00 | 83 | 1027.8 |
| 20260902154625 | 66 | 7 | 1.7 | 1.7 | 0.00 | 0.00 | 0.00 | 82 | 1027.9 |
| 20260902154120 | 66 | 359 | 1.7 | 1.7 | 0.00 | 0.00 | 0.00 | 81 | 1027.9 |
| 20260902153619 | 66 | 34 | 1.7 | 1.7 | 0.00 | 0.00 | 0.00 | 83 | 1028.1 |
| 20260902153114 | 66 | 89 | 0.9 | 1.7 | 0.00 | 0.00 | 0.00 | 83 | 1028.2 |
| 20260902152610 | 66 | 84 | 1.7 | 1.7 | 0.00 | 0.00 | 0.00 | 83 | 1028.2 |
| 20260902152105 | 66 | 157 | 1.7 | 1.7 | 0.00 | 0.00 | 0.00 | 84 | 1028.3 |
| 20260902151601 | 66 | 27 | 1.7 | 1.7 | 0.00 | 0.00 | 0.00 | 83 | 1028.2 |
| 20260902151101 | 66 | 89 | 0.0 | 1.7 | 0.00 | 0.00 | 0.00 | 85 | 1028.2 |
| 20260902150556 | 65 | 63 | 1.7 | 1.7 | 0.00 | 0.00 | 0.00 | 85 | 1028.1 |
| 20260902150052 | 65 | 108 | 0.0 | 2.6 | 0.00 | 0.00 | 0.00 | 84 | 1028.1 |
| 20260902145551 | 65 | 92 | 0.9 | 1.7 | 0.00 | 0.00 | 0.00 | 86 | 1028.1 |
| 20260902145051 | 65 | 74 | 1.7 | 1.7 | 0.00 | 0.00 | 0.00 | 86 | 1027.9 |
| 20260902144549 | 65 | 97 | 0.0 | 1.7 | 0.00 | 0.00 | 0.00 | 86 | 1028.1 |
| 20260902144049 | 65 | 89 | 0.9 | 2.6 | 0.00 | 0.00 | 0.00 | 86 | 1027.9 |
| 20260902143544 | 64 | 102 | 1.7 | 1.7 | 0.00 | 0.00 | 0.00 | 88 | 1028.1 |
| 20260902143039 | 64 | 45 | 0.0 | 1.7 | 0.00 | 0.00 | 0.00 | 88 | 1028.1 |
| 20260902142535 | 64 | 66 | 0.0 | 1.7 | 0.00 | 0.00 | 0.00 | 87 | 1028.0 |
| 20260902142031 | 64 | 108 | 0.9 | 1.7 | 0.00 | 0.00 | 0.00 | 87 | 1028.1 |
| 20260902141530 | 64 | 42 | 1.7 | 1.7 | 0.00 | 0.00 | 0.00 | 89 | 1028.5 |
| 20260902141026 | 64 | 110 | 1.7 | 2.6 | 0.00 | 0.00 | 0.00 | 88 | 1028.0 |
| 20260902140526 | 64 | 81 | 0.9 | 3.5 | 0.00 | 0.00 | 0.00 | 89 | 1028.0 |
| 20260902140021 | 64 | 324 | 1.7 | 1.7 | 0.00 | 0.00 | 0.00 | 89 | 1027.9 |
| 20260902135520 | 63 | 287 | 0.9 | 1.7 | 0.00 | 0.00 | 0.00 | 89 | 1027.9 |
| 20260902135015 | 64 | 79 | 1.7 | 3.5 | 0.00 | 0.00 | 0.00 | 90 | 1027.6 |
| 20260902134512 | 63 | 80 | 1.7 | 1.7 | 0.00 | 0.00 | 0.00 | 91 | 1027.7 |
| 20260902134011 | 63 | 76 | 0.0 | 2.6 | 0.00 | 0.00 | 0.00 | 90 | 1027.4 |
| 20260902133506 | 63 | 88 | 1.7 | 1.7 | 0.00 | 0.00 | 0.00 | 91 | 1027.4 |
| 20260902133006 | 63 | 327 | 0.9 | 1.7 | 0.00 | 0.00 | 0.00 | 91 | 1027.5 |
| 20260902132501 | 63 | 73 | 0.9 | 1.7 | 0.00 | 0.00 | 0.00 | 92 | 1027.5 |
| 20260902131956 | 62 | 95 | 1.7 | 1.7 | 0.00 | 0.00 | 0.00 | 92 | 1027.3 |
| 20260902131453 | 63 | 327 | 0.9 | 1.7 | 0.00 | 0.00 | 0.00 | 93 | 1027.2 |
| 20260902130952 | 62 | 107 | 0.9 | 1.7 | 0.00 | 0.00 | 0.00 | 92 | 1027.1 |
| 20260902130448 | 62 | 91 | 0.0 | 1.7 | 0.00 | 0.00 | 0.00 | 93 | 1027.4 |
| 20260902125943 | 62 | 89 | 0.0 | 1.7 | 0.00 | 0.00 | 0.00 | 92 | 1027.2 |
| 20260902125439 | 62 | 57 | 1.7 | 5.2 | 0.00 | 0.00 | 0.00 | 93 | 1027.2 |
| 20260902124935 | 62 | 73 | 0.0 | 1.7 | 0.00 | 0.00 | 0.00 | 94 | 1027.3 |
| 20260902124431 | 61 | 38 | 0.9 | 1.7 | 0.00 | 0.00 | 0.00 | 94 | 1027.5 |
| 20260902123926 | 61 | 109 | 1.7 | 2.6 | 0.00 | 0.00 | 0.00 | 94 | 1027.5 |
| 20260902123422 | 61 | 105 | 1.7 | 2.6 | 0.00 | 0.00 | 0.00 | 95 | 1027.3 |
| 20260902122920 | 61 | 104 | 1.7 | 2.6 | 0.00 | 0.00 | 0.00 | 95 | 1027.2 |
| 20260902122416 | 60 | 28 | 0.9 | 1.7 | 0.00 | 0.00 | 0.00 | 95 | 1027.3 |
| 20260902121912 | 60 | 44 | 0.9 | 1.7 | 0.00 | 0.00 | 0.00 | 96 | 1027.3 |
| 20260902121406 | 60 | 195 | 0.0 | 1.7 | 0.00 | 0.00 | 0.00 | 96 | 1027.4 |
| 20260902120901 | 60 | 6 | 0.0 | 1.7 | 0.00 | 0.00 | 0.00 | 97 | 1027.6 |
| 20260902120358 | 60 | 129 | 1.7 | 1.7 | 0.00 | 0.00 | 0.00 | 98 | 1027.6 |
| 20260902115857 | 60 | 66 | 0.0 | 1.7 | 0.00 | 0.00 | 0.00 | 98 | 1027.3 |
| 20260902115354 | 60 | 43 | 0.9 | 1.7 | 0.00 | 0.00 | 0.00 | 98 | 1027.3 |
| 20260902114850 | 60 | 159 | 0.0 | 1.7 | 0.00 | 0.00 | 0.00 | 99 | 1027.3 |
| 20260902114345 | 59 | 44 | 0.9 | 1.7 | 0.00 | 0.00 | 0.00 | 99 | 1027.5 |
| 20260902113840 | 59 | 1 | 0.0 | 1.7 | 0.00 | 0.00 | 0.00 | 99 | 1027.5 |
| 20260902113336 | 59 | 7 | 1.7 | 1.7 | 0.00 | 0.00 | 0.00 | 99 | 1027.6 |
| 20260902112835 | 59 | 358 | 0.9 | 1.7 | 0.00 | 0.00 | 0.00 | 99 | 1027.7 |
| 20260902112332 | 59 | 346 | 0.9 | 1.7 | 0.00 | 0.00 | 0.00 | 99 | 1027.7 |
| 20260902111827 | 59 | 217 | 0.0 | 0.0 | 0.00 | 0.00 | 0.00 | 99 | 1027.8 |
| 20260902111323 | 59 | 217 | 0.0 | 0.9 | 0.00 | 0.00 | 0.00 | 99 | 1027.8 |
| 20260902110819 | 59 | 167 | 0.0 | 1.7 | 0.00 | 0.00 | 0.00 | 99 | 1027.7 |
| 20260902110314 | 59 | 180 | 0.0 | 1.7 | 0.00 | 0.00 | 0.00 | 99 | 1027.6 |
| 20260902105814 | 59 | 193 | 0.0 | 1.7 | 0.00 | 0.00 | 0.00 | 99 | 1027.4 |
| 20260902105309 | 59 | 128 | 1.7 | 1.7 | 0.00 | 0.00 | 0.00 | 99 | 1027.2 |
| 20260902104804 | 59 | 10 | 0.9 | 1.7 | 0.00 | 0.00 | 0.00 | 99 | 1027.4 |
| 20260902104301 | 59 | 18 | 1.7 | 1.7 | 0.00 | 0.00 | 0.00 | 99 | 1027.4 |
| 20260902103800 | 59 | 104 | 0.0 | 1.7 | 0.00 | 0.00 | 0.00 | 99 | 1027.4 |
| 20260902103301 | 59 | 150 | 0.0 | 0.9 | 0.00 | 0.00 | 0.00 | 99 | 1027.2 |
| 20260902102756 | 59 | 66 | 0.0 | 0.9 | 0.00 | 0.00 | 0.00 | 99 | 1027.4 |
| 20260902102253 | 58 | 113 | 0.0 | 0.9 | 0.00 | 0.00 | 0.00 | 99 | 1027.1 |
| 20260902101748 | 58 | 126 | 0.0 | 1.7 | 0.00 | 0.00 | 0.00 | 99 | 1027.2 |
| 20260902101243 | 58 | 182 | 0.0 | 0.9 | 0.00 | 0.00 | 0.00 | 99 | 1027.0 |
| 20260902100743 | 58 | 166 | 0.0 | 0.9 | 0.00 | 0.00 | 0.00 | 99 | 1026.9 |
| 20260902100237 | 59 | 119 | 0.0 | 0.0 | 0.00 | 0.00 | 0.00 | 99 | 1027.1 |
| 20260902095738 | 59 | 148 | 0.0 | 0.9 | 0.00 | 0.00 | 0.00 | 99 | 1027.3 |
| 20260902095232 | 58 | 23 | 0.0 | 0.0 | 0.00 | 0.00 | 0.00 | 99 | 1027.3 |
| 20260902094726 | 59 | 119 | 0.0 | 0.0 | 0.00 | 0.00 | 0.00 | 99 | 1027.1 |
| 20260902094223 | 59 | 45 | 0.0 | 0.9 | 0.00 | 0.00 | 0.00 | 99 | 1027.0 |
| 20260902093722 | 58 | 128 | 0.9 | 0.9 | 0.00 | 0.00 | 0.00 | 99 | 1027.1 |
| 20260902093218 | 58 | 37 | 0.0 | 0.0 | 0.00 | 0.00 | 0.00 | 99 | 1026.8 |
| 20260902092718 | 59 | 142 | 0.0 | 0.0 | 0.00 | 0.00 | 0.00 | 99 | 1026.9 |
| 20260902092213 | 58 | 39 | 0.9 | 1.7 | 0.00 | 0.00 | 0.00 | 99 | 1026.6 |
| 20260902091712 | 59 | 56 | 0.0 | 0.0 | 0.00 | 0.00 | 0.00 | 99 | 1026.8 |
| 20260902091209 | 59 | 142 | 0.0 | 0.0 | 0.00 | 0.00 | 0.00 | 99 | 1026.6 |
| 20260902090705 | 58 | 167 | 0.0 | 0.9 | 0.00 | 0.00 | 0.00 | 99 | 1026.5 |
| 20260902090203 | 58 | 147 | 0.0 | 0.9 | 0.00 | 0.00 | 0.00 | 99 | 1026.7 |
| 20260902085658 | 58 | 128 | 1.7 | 1.7 | 0.00 | 0.00 | 0.00 | 99 | 1026.3 |
| 20260902085153 | 58 | 66 | 0.0 | 0.0 | 0.00 | 0.00 | 0.00 | 99 | 1026.5 |
| 20260902084649 | 58 | 60 | 0.0 | 1.7 | 0.00 | 0.00 | 0.00 | 99 | 1026.2 |
| 20260902084145 | 59 | 96 | 0.0 | 0.0 | 0.00 | 0.00 | 0.00 | 99 | 1026.6 |
| 20260902083640 | 58 | 135 | 0.0 | 0.9 | 0.00 | 0.00 | 0.00 | 99 | 1026.6 |
| 20260902083139 | 58 | 83 | 0.0 | 0.9 | 0.00 | 0.00 | 0.00 | 99 | 1026.6 |
| 20260902082635 | 58 | 119 | 0.0 | 0.9 | 0.00 | 0.00 | 0.00 | 99 | 1026.2 |
| 20260902082131 | 59 | 37 | 0.0 | 0.9 | 0.00 | 0.00 | 0.00 | 99 | 1026.5 |
| 20260902081627 | 59 | 30 | 0.9 | 1.7 | 0.00 | 0.00 | 0.00 | 99 | 1026.3 |